Location: Dennis Manor
(64.8292°N, 147.5397°W)
Time: 17:07:32
(UTC+00:00)

Envisat - Pass Details

Date: 28 October 2020
Orbit: 764 x 766 km, 98.1° (Epoch: 25 November)

Event Time Altitude Azimuth Distance (km) Brightness Sun altitude
Rises 16:17:03 0° 19° (NNE) 3,250 6.3 -7.6°
Reaches altitude 10° 16:19:23 10° 21° (NNE) 2,320 5.6 -7.4°
Maximum altitude 16:24:30 74° 107° (ESE) 803 3.3 -6.9°
Drops below altitude 10° 16:29:36 10° 193° (SSW) 2,304 5.6 -6.4°
Sets 16:31:54 0° 195° (SSW) 3,227 6.3 -6.1°
